Miscellaneous Local Product
Issued by NWS North Platte, NE

Home | Current Version | Previous Version | Text Only | Print | Product List | Glossary On
Versions: 1 2 3 4 5 6 7 8 9 10 11 12 13 14 15 16 17 18 19 20 21 22 23 24 25 26 27 28 29 30 31 32 33 34 35 36 37 38 39 40 41 42 43 44 45 46 47 48 49 50
000
AXUS43 KLBF 030110
MISLBF


WESTERN AND NORTH CENTRAL NEBRASKA HOURLY WEATHER ROUNDUP
NATIONAL WEATHER SERVICE NORTH PLATTE NE
800 PM CDT SAT MAY 02 2015

***STATIONS NOT REPORTING VARIABLES SUCH AS SKY/WEATHER OR
PRESSURE ARE PROVIDED BY THE NEBRASKA DEPARTMENT OF
ROADS...RAWS...AND APRS NETWORKS...AND ARE NOT UNDER
NATIONAL WEATHER SERVICE QUALITY CONTROL***

...OBSERVATIONS IN AND NEAR THE EASTERN PANHANDLE OF NEBRASKA...

CITY           SKY/WX    TMP DP  RH WIND       PRES   REMARKS
PINE RIDGE     PTCLDY    77  29  17 NW9       29.72R
CHADRON        CLEAR     74  39  28 NW6       29.71F
ALLIANCE       PTCLDY    74  41  30 NW6       29.75F
SIDNEY         CLOUDY    66  43  43 W12       29.85R
$$

...OBSERVATIONS IN NORTH CENTRAL NEBRASKA...

CITY           SKY/WX    TMP DP  RH WIND       PRES   REMARKS
VALENTINE      PTCLDY    80  38  22 E7        29.68R
THEDFORD       CLEAR     81  34  18 W9        29.71S
AINSWORTH      MOCLDY    79  46  31 S7        29.68S
O`NEILL        PTCLDY    79  52  38 SE3       29.69F
ORD            MOCLDY    78  49  35 S7        29.66F
BROKEN BOW     PTCLDY    82  45  27 SW9       29.70S
$$

...OBSERVATIONS IN SOUTHWEST NEBRASKA AND FAR NORTHEAST COLORADO...

CITY           SKY/WX    TMP DP  RH WIND       PRES   REMARKS
WRAY           FAIR      73  42  33 NW8       29.81S
IMPERIAL       CLOUDY    76  38  25 W7        29.77S
OGALLALA       MOCLDY    74  42  32 W8        29.76S
NORTH PLATTE   CLOUDY    75  41  29 W8        29.73S
MCCOOK         MOCLDY    82  40  22 CALM      29.73F
LEXINGTON      CLOUDY    74  49  40 SW8       29.72F
$$

...NORTH PLATTE AREA...

CITY           SKY/WX    TMP DP  RH WIND       PRES   REMARKS
AIRPORT        CLOUDY    75  41  29 W8        29.73S
$$

...SOME WEATHER OBSERVATIONS FROM AROUND THE REGION...

CITY           SKY/WX    TMP DP  RH WIND       PRES   REMARKS
DENVER         CLOUDY    62  39  42 NE15      29.98R
LARAMIE        CLOUDY    51  36  56 MISG      30.01F
CHEYENNE       CLOUDY    58  37  45 SW16G30   29.95R
SCOTTSBLUFF    PTCLDY    75  38  26 S13       29.78R
RAPID CITY     CLOUDY    74  32  21 N12       29.72S
PIERRE         MOCLDY    77  42  28 S9G18     29.60S
WINNER         FAIR      81  45  28 S8        29.65F
SIOUX FALLS    PTCLDY    74  52  46 S16       29.71F
OMAHA          PTCLDY    68  57  68 SE18      29.77F
GRAND ISLAND   PTCLDY    79  48  33 S15       29.70F THUNDER
KANSAS CITY    PTCLDY    69  54  58 S10       29.89S
WICHITA        PTCLDY    76  52  43 S16       29.85S
HAYS           MOCLDY    81  48  32 S24       29.75S
LIBERAL        CLOUDY    75  43  31 S13       29.82F
GOODLAND       CLOUDY    75  51  43 S9        29.81S
$$



USA.gov is the U.S. government's official web portal to all federal, state and local government web resources and services.